Regional Weather Roundup
Issued by NWS

Home | Current Version | Previous Version | Text Only | Print | Product List | Glossary On
Versions: 1 2 3 4 5 6 7 8 9 10 11 12 13 14 15 16 17 18 19 20 21 22 23 24 25 26 27 28 29 30 31 32 33 34 35 36 37 38 39 40 41 42 43 44 45 46 47 48 49 50
289
ASUS45 KPSR 172110
RWRAZ

ARIZONA HOURLY REGIONAL WEATHER ROUNDUP
NATIONAL WEATHER SERVICE PHOENIX AZ
200 PM MST TUE SEP 17 2019

NOTE: FAIR INDICATES FEW OR NO CLOUDS BELOW 12,000 FEET WITH NO
SIGNIFICANT WEATHER AND/OR OBSTRUCTIONS TO VISIBILITY.

AZZ001>003-036-172200-
NORTHWEST ARIZONA

CITY           SKY/WX    TMP DP  RH WIND       PRES   REMARKS
BULLHEAD CITY  SUNNY     95  25   8 S5G15     29.83F
KINGMAN        SUNNY     87  32  14 SW20G30   30.00F
$$

AZZ004>008-015-016-018-172200-
NORTH CENTRAL ARIZONA

CITY           SKY/WX    TMP DP  RH WIND       PRES   REMARKS
GRAND CANYON   SUNNY     75  36  24 SW20G37   30.17S
WILLIAMS       MOSUNNY   73  39  29 SW16G32   30.21
PRESCOTT       MOSUNNY   78  45  30 W18G30    30.11F
FLAGSTAFF      MOSUNNY   72  40  31 SW20G38   30.22F
PAYSON         CLOUDY    79  50  36 SW10G20   30.15
PAGE           MOSUNNY   85  38  18 SW8G21    29.97F
$$

AZZ009>014-017-172200-
NORTHEAST ARIZONA

CITY           SKY/WX    TMP DP  RH WIND       PRES   REMARKS
WINSLOW        SUNNY     87  44  22 SW24G35   30.07F
SAINT JOHNS    MOSUNNY   83  35  18 W17G28    30.13F
WINDOW ROCK    MOSUNNY   75  42  30 SW18G24   30.19F
SHOW LOW       MOSUNNY   79  39  24 SW23G29   30.21F
$$

AZZ540-542>544-546-548-172200-
GREATER PHOENIX AREA

CITY           SKY/WX    TMP DP  RH WIND       PRES   REMARKS
PHOENIX        MOSUNNY   97  58  27 S6        29.86F
BUCKEYE        SUNNY     91  63  38 E5        29.88
GLENDALE       MOSUNNY   93  59  31 SE5       29.89F
LUKE AFB       MOSUNNY   94  59  30 CALM      29.86F
DEER VALLEY    SUNNY     92  58  31 SW9       29.89F
SCOTTSDALE     SUNNY     93  55  27 SE7       29.90F
MESA-FALCON    SUNNY     95  57  27 SW10      29.88F
MESA-GATEWAY   MOSUNNY   95  57  28 SW6       29.90F
CHANDLER       MOSUNNY   95  55  26 SW9       29.88F
$$

AZZ539-553-172200-
SOUTHWEST MARICOPA COUNTY AND PINAL COUNTY

CITY           SKY/WX    TMP DP  RH WIND       PRES   REMARKS
CASA GRANDE    SUNNY     94  57  28 VRB7      29.90F
GILA BEND      FAIR      98  55  23 W10G17    29.82F
$$

AZZ503-504-507>509-172200-
SOUTHEAST ARIZONA

CITY           SKY/WX    TMP DP  RH WIND       PRES   REMARKS
TUCSON         SUNNY     92  49  22 VRB3      29.99F
DAVIS-MONTHAN  SUNNY     90  52  27 NW6       29.98F
RYAN FIELD     SUNNY     91  52  25 NW3       29.98F
NOGALES        SUNNY     88  50  27 VRB3      30.06F
SIERRA VISTA   MOSUNNY   85  47  27 NW13      30.12
DOUGLAS        MOSUNNY   86  48  26 NW9       30.07F
SAFFORD        SUNNY     90  53  28 W14       29.99F
$$

AZZ532-172200-
SOUTHWEST ARIZONA

CITY           SKY/WX    TMP DP  RH WIND       PRES   REMARKS
YUMA           MOSUNNY  100  34  10 N10       29.81F
$$

CAZ041-043-047-048-061-525>527-560>570-172200-
SOUTHERN CALIFORNIA

CITY           SKY/WX    TMP DP  RH WIND       PRES   REMARKS
DOWNTOWN L.A.  SUNNY     82  62  50 VRB3      29.93F
L.A. AIRPORT   MOSUNNY   78  61  55 W15       29.95F
SAN DIEGO      MOSUNNY   75  62  64 W9        29.96F
BURBANK        SUNNY     80  58  46 SE8       29.94F
ONTARIO        SUNNY     84  45  25 SW7       29.94F
RIVERSIDE      SUNNY     87  47  24 NW6       29.92F
PALM SPRINGS   SUNNY     98  23   7 N6        29.85F
EL CENTRO NAS  SUNNY    103  22   5 W23G29    29.81F
IMPERIAL       SUNNY    100  38  11 NW14G24   29.78F
BLYTHE         SUNNY    100  34  10 SW8G20    29.81F
NEEDLES        SUNNY     99  32   9 SW12G21   29.84F
$$

NVZ020-UTZ003-172200-
SOUTHERN NEVADA-UTAH

CITY           SKY/WX    TMP DP  RH WIND       PRES   REMARKS
LAS VEGAS      MOSUNNY   86  25  11 VRB5      29.91F
SALT LAKE CITY PTSUNNY   65  35  33 NW7       30.10S
$$

NMZ009-TXZ055-172200-
NEW MEXICO-WEST TEXAS

CITY           SKY/WX    TMP DP  RH WIND       PRES   REMARKS
ALBUQUERQUE    MOSUNNY   80  49  33 CALM      30.12F
EL PASO        MOSUNNY   89  55  31 VRB3      30.03F
$$


........................KEY........................
SKY/WX - SKY CONDITION/WEATHER
TMP    - TEMPERATURE IN FAHRENHEIT
DP     - DEW POINT IN FAHRENHEIT
RH     - RELATIVE HUMIDITY IN PERCENT
WIND   - DIRECTION AND SPEED IN MILES PER HOUR (MPH)
VRB    - VARIABLE WIND DIRECTION
PRES   - MEAN SEA LEVEL PRESSURE IN INCHES OF MERCURY
         F - FALLING PRESSURE   R - RISING PRESSURE
         S - STEADY PRESSURE
VSB    - VISIBILITY IN MILES
HX     - HEAT INDEX IN FAHRENHEIT
WCI    - WIND CHILL INDEX IN FAHRENHEIT
TC     - TEMPERATURE IN CELSIUS WHICH IS ALSO KNOWN AS
         TEMPERATURE IN CENTIGRADE
AFB    - AIR FORCE BASE
         LUKE AFB IS LUKE AIR FORCE BASE
         DAVIS-MONTHAN IS DAVIS-MONTHAN AIR FORCE BASE
NAS    - NAVAL AIR STATION
         EL CENTRO NAS IS EL CENTRO NAVAL AIR STATION
N/A    - NOT AVAILABLE





USA.gov is the U.S. government's official web portal to all federal, state and local government web resources and services.